Location: *
(47.8307°S, 178.3954°E)
Time: 07:35:35
(UTC+00:00)

Cosmos 1455 Rocket - Pass Details

Date: 12 August 2024
Orbit: 600 x 625 km, 82.5° (Epoch: 18 September)

Event Time Altitude Azimuth Distance (km) Brightness Sun altitude
Rises 17:49:31 0° 194° (SSW) 2,954 6.3 -14.4°
Reaches altitude 10° 17:51:48 10° 197° (SSW) 2,040 5.5 -14.1°
Maximum altitude 17:56:15 57° 275° (W) 755 3.1 -13.3°
Drops below altitude 10° 18:00:38 10° 353° (N) 2,012 5.7 -12.6°
Sets 18:02:52 0° 356° (N) 2,910 6.6 -12.2°
